ELECTRON R/B

Last updated on Fri Sep 05 2025 00:02:06 GMT+0000 (Coordinated Universal Time)

1 65303U 25185G 25247.34923822 .15673738 19122-5 39868-3 0 9998 2 65303 97.9414 331.8229 0074416 201.8355 157.9764 16.34376737 1790

Satellite not in orbit